Change the Weather History Date:

Monday, March 11, 2013

  Actual Average Record
Temperature  
Mean Temperature 42 °F -  
Max Temperature 64 °F 61 °F 91 °F (1989)
Min Temperature 21 °F 33 °F 15 °F (1969)
Degree Days  
Heating Degree Days 22    
Moisture  
Dew Point 21 °F    
Average Humidity 51    
Maximum Humidity 82    
Minimum Humidity 16    
Precipitation  
Precipitation 0.00 in - - ()
Sea Level Pressure  
Sea Level Pressure 29.99 in    
Wind  
Wind Speed 9 mph (West)    
Max Wind Speed 16 mph    
Max Gust Speed 18 mph    
Visibility 10 miles    
Events      
Averages and records for this station are not official NWS values.
T = Trace of Precipitation, MM = Missing Value Source: NWS Daily Summary

Daily Weather History Graph

Daily Weather History Graph

Search for Another Location

Airport or City:

Trip Planner

Search our weather history database for the weather conditions in past years. The results will help you decide how hot, cold, wet, or windy it might be!

Date:

Astronomy

Mar. 11, 2013 Rise Set
Actual Time 7:59 AM CDT 7:48 PM CDT
Civil Twilight 7:34 AM CDT 8:13 PM CDT
Nautical Twilight 7:04 AM CDT 8:43 PM CDT
Astronomical Twilight 6:35 AM CDT 9:13 PM CDT
Moon 7:35 AM CDT (3/11) 8:00 PM CDT (3/11)
Length of Visible Light 12h 39m
Length of Day
11h 48m
Waning Crescent, 0% of the Moon is Illuminated
Mar 11
Waning Crescent
Mar 11
New
Mar 19
First Quarter
Mar 27
Full
Apr 2
Last Quarter

Hourly Weather History & Observations

Time (CDT) Temp. Windchill Dew Point Humidity Pressure Visibility Wind Dir Wind Speed Gust Speed Precip Events Conditions
12:15 AM 25.7 °F 15.1 °F 16.5 °F 68% 30.10 in 10.0 mi NW 11.5 mph - N/A   Clear
12:35 AM 25.5 °F 16.2 °F 16.0 °F 67% 30.10 in 10.0 mi NW 9.2 mph - N/A   Clear
12:55 AM 23.9 °F 14.2 °F 16.5 °F 73% 30.09 in 10.0 mi NW 9.2 mph - N/A   Clear
1:15 AM 22.5 °F 12.4 °F 16.3 °F 77% 30.10 in 10.0 mi WNW 9.2 mph - N/A   Clear
1:55 AM 21.2 °F 11.7 °F 16.0 °F 80% 30.08 in 10.0 mi WNW 8.1 mph - N/A   Clear
2:15 AM 22.1 °F 12.0 °F 16.5 °F 79% 30.07 in 10.0 mi WNW 9.2 mph - N/A   Clear
2:35 AM 21.6 °F 13.0 °F 16.3 °F 80% 30.07 in 10.0 mi WNW 6.9 mph - N/A   Clear
2:55 AM 21.7 °F 12.3 °F 16.3 °F 80% 30.07 in 10.0 mi WNW 8.1 mph - N/A   Clear
3:15 AM 22.1 °F 12.0 °F 17.1 °F 81% 30.07 in 10.0 mi WNW 9.2 mph - N/A   Clear
3:35 AM 22.8 °F 12.9 °F 17.6 °F 80% 30.07 in 10.0 mi WNW 9.2 mph - N/A   Clear
3:55 AM 23.4 °F 13.5 °F 18.1 °F 80% 30.06 in 10.0 mi WNW 9.2 mph - N/A   Clear
4:15 AM 23.2 °F 13.3 °F 18.0 °F 80% 30.05 in 10.0 mi WNW 9.2 mph - N/A   Clear
4:35 AM 22.8 °F 13.6 °F 17.8 °F 81% 30.04 in 10.0 mi WNW 8.1 mph - N/A   Clear
4:55 AM 22.5 °F 13.2 °F 17.6 °F 82% 30.03 in 10.0 mi WNW 8.1 mph - N/A   Clear
5:15 AM 22.1 °F 13.7 °F 17.4 °F 82% 30.03 in 10.0 mi WNW 6.9 mph - N/A   Clear
5:35 AM 22.6 °F 14.3 °F 17.4 °F 80% 30.03 in 10.0 mi WNW 6.9 mph - N/A   Clear
5:55 AM 23.0 °F 13.9 °F 17.8 °F 80% 30.03 in 10.0 mi WNW 8.1 mph - N/A   Clear
6:15 AM 23.0 °F 13.9 °F 17.8 °F 80% 30.02 in 10.0 mi WNW 8.1 mph - N/A   Clear
6:35 AM 23.7 °F 15.6 °F 18.1 °F 79% 30.02 in 10.0 mi West 6.9 mph - N/A   Clear
6:55 AM 24.8 °F 15.3 °F 19.0 °F 79% 30.02 in 10.0 mi West 9.2 mph - N/A   Clear
7:15 AM 25.7 °F 15.7 °F 19.4 °F 77% 30.02 in 10.0 mi West 10.4 mph - N/A   Clear
7:35 AM 25.7 °F 16.4 °F 19.2 °F 76% 30.02 in 10.0 mi West 9.2 mph - N/A   Clear
7:55 AM 25.7 °F 16.4 °F 18.9 °F 75% 30.03 in 10.0 mi West 9.2 mph - N/A   Clear
8:15 AM 26.4 °F 17.3 °F 19.0 °F 74% 30.03 in 10.0 mi West 9.2 mph - N/A   Clear
8:35 AM 28.4 °F 21.2 °F 19.9 °F 71% 30.02 in 10.0 mi West 6.9 mph - N/A   Clear
8:55 AM 30.6 °F 24.7 °F 20.5 °F 66% 30.03 in 10.0 mi West 5.8 mph - N/A   Clear
9:15 AM 32.7 °F 24.5 °F 21.2 °F 63% 30.02 in 10.0 mi West 10.4 mph - N/A   Clear
9:35 AM 34.9 °F 26.2 °F 21.2 °F 57% 30.02 in 10.0 mi West 12.7 mph - N/A   Clear
9:55 AM 37.4 °F 29.3 °F 21.9 °F 54% 30.03 in 10.0 mi West 12.7 mph - N/A   Clear
10:15 AM 39.6 °F 31.0 °F 21.7 °F 49% 30.03 in 10.0 mi West 16.1 mph - N/A   Clear
10:35 AM 42.3 °F 35.5 °F 21.9 °F 44% 30.03 in 10.0 mi West 12.7 mph - N/A   Clear
10:55 AM 44.2 °F 38.0 °F 21.7 °F 41% 30.03 in 10.0 mi West 12.7 mph - N/A   Clear
11:15 AM 46.2 °F 40.8 °F 21.6 °F 38% 30.03 in 10.0 mi West 11.5 mph - N/A   Clear
11:35 AM 48.4 °F - 22.1 °F 36% 30.03 in 10.0 mi West 12.7 mph - N/A   Clear
11:55 AM 49.6 °F - 22.1 °F 34% 30.03 in 10.0 mi West 12.7 mph - N/A   Clear
12:15 PM 52.3 °F - 23.4 °F 32% 30.03 in 10.0 mi West 12.7 mph - N/A   Clear
12:35 PM 53.8 °F - 23.4 °F 31% 30.02 in 10.0 mi West 12.7 mph - N/A   Clear
1:15 PM 57.2 °F - 23.7 °F 28% 30.00 in 10.0 mi West 10.4 mph - N/A   Clear
1:35 PM 58.3 °F - 23.2 °F 26% 29.99 in 10.0 mi West 10.4 mph - N/A   Clear
1:55 PM 59.9 °F - 21.7 °F 23% 30.00 in 10.0 mi WSW 10.4 mph 16.1 mph N/A   Clear
2:15 PM 60.4 °F - 21.0 °F 22% 29.99 in 10.0 mi WNW 9.2 mph - N/A   Clear
2:35 PM 61.2 °F - 21.2 °F 22% 29.98 in 10.0 mi West 9.2 mph - N/A   Clear
2:55 PM 61.9 °F - 19.6 °F 20% 29.96 in 10.0 mi NW 6.9 mph - N/A   Clear
3:15 PM 61.7 °F - 19.6 °F 20% 29.95 in 10.0 mi West 10.4 mph 18.4 mph N/A   Clear
3:35 PM 62.8 °F - 18.7 °F 18% 29.94 in 10.0 mi West 8.1 mph 16.1 mph N/A   Clear
3:55 PM 63.3 °F - 19.6 °F 19% 29.94 in 10.0 mi NW 6.9 mph - N/A   Clear
4:15 PM 63.5 °F - 19.2 °F 18% 29.94 in 10.0 mi West 6.9 mph - N/A   Clear
4:35 PM 64.6 °F - 19.4 °F 18% 29.94 in 10.0 mi West 10.4 mph 17.3 mph N/A   Clear
4:55 PM 63.7 °F - 18.0 °F 17% 29.94 in 10.0 mi SW 9.2 mph - N/A   Clear
5:15 PM 64.2 °F - 18.3 °F 17% 29.92 in 10.0 mi SW 11.5 mph - N/A   Clear
5:35 PM 63.7 °F - 17.1 °F 17% 29.92 in 10.0 mi West 3.5 mph - N/A   Clear
5:55 PM 64.2 °F - 16.9 °F 16% 29.92 in 10.0 mi WSW 9.2 mph - N/A   Clear
6:15 PM 63.9 °F - 17.1 °F 16% 29.91 in 10.0 mi SSW 10.4 mph - N/A   Clear
6:35 PM 63.5 °F - 18.0 °F 17% 29.91 in 10.0 mi WSW 9.2 mph - N/A   Clear
6:55 PM 62.6 °F - 19.0 °F 19% 29.91 in 10.0 mi SW 8.1 mph - N/A   Clear
7:15 PM 60.6 °F - 22.8 °F 23% 29.91 in 10.0 mi SW 4.6 mph - N/A   Clear
7:35 PM 57.0 °F - 23.5 °F 27% 29.91 in 10.0 mi South 6.9 mph - N/A   Clear
7:55 PM 54.9 °F - 23.7 °F 30% 29.91 in 10.0 mi South 8.1 mph - N/A   Clear
8:15 PM 50.9 °F - 26.1 °F 38% 29.90 in 10.0 mi South 8.1 mph - N/A   Clear
8:35 PM 49.1 °F - 25.7 °F 40% 29.91 in 10.0 mi South 9.2 mph - N/A   Clear
8:55 PM 47.3 °F - 28.6 °F 48% 29.91 in 10.0 mi South 8.1 mph - N/A   Clear
9:15 PM 46.6 °F - 29.3 °F 51% 29.91 in 10.0 mi South 6.9 mph - N/A   Clear
9:35 PM 47.1 °F - 29.3 °F 50% 29.92 in 10.0 mi South 8.1 mph - N/A   Clear
9:55 PM 43.9 °F 37.9 °F 29.1 °F 56% 29.92 in 10.0 mi South 11.5 mph - N/A   Clear
10:15 PM 44.4 °F 39.0 °F 29.8 °F 57% 29.92 in 10.0 mi South 10.4 mph - N/A   Clear
10:35 PM 40.5 °F 34.6 °F 29.3 °F 64% 29.92 in 10.0 mi South 9.2 mph - N/A   Clear
10:55 PM 39.6 °F 33.0 °F 29.3 °F 67% 29.92 in 10.0 mi South 10.4 mph - N/A   Clear
11:15 PM 39.0 °F 32.8 °F 28.8 °F 67% 29.92 in 10.0 mi South 9.2 mph - N/A   Clear
11:35 PM 39.9 °F 33.9 °F 28.4 °F 63% 29.92 in 10.0 mi South 9.2 mph - N/A   Clear
11:55 PM 44.2 °F 38.8 °F 27.9 °F 53% 29.92 in 10.0 mi South 10.4 mph - N/A   Clear